When you browse on this site, cookies collect data to enhance your experience and personalize the content and advertising you see.
Visit our Privacy Policy to learn more. By continuing to use the site, you agree to this use of cookies and data.
  • In Deutschland
  • Länderverzeichnis
  • Für 7 Tage
  • Wassertemperatur
  • Wetterkarte
  • Widgets
  • user-avatar
    Anmelden

    Stündliche Wetter Mauritius

    Heute, 11 Dezember, Mittwoch

    Zeit Temperatur Niederschläge Wind Luftdruck Luftfeuchtigkeit
    00:00 +27°C° 0 mm 2 m/S 722 mmHg 83%
    01:00 +26°C° 0 mm 1 m/S 722 mmHg 84%
    02:00 +26°C° 0 mm 1 m/S 722 mmHg 85%
    03:00 +26°C° 0 mm 1 m/S 722 mmHg 86%
    04:00 +26°C° 0 mm 2 m/S 721 mmHg 85%
    05:00 +26°C° 0 mm 2 m/S 722 mmHg 83%
    06:00 +26°C° 0 mm 2 m/S 722 mmHg 81%
    07:00 +27°C° 0 mm 2 m/S 722 mmHg 79%
    08:00 +28°C° 0 mm 3 m/S 723 mmHg 74%
    09:00 +29°C° 0 mm 3 m/S 723 mmHg 69%
    10:00 +30°C° 0 mm 4 m/S 723 mmHg 64%
    11:00 +30°C° 0.2 mm 4 m/S 723 mmHg 64%
    12:00 +30°C° 0.2 mm 4 m/S 723 mmHg 63%
    13:00 +30°C° 0.2 mm 4 m/S 722 mmHg 63%
    14:00 +30°C° 0.2 mm 4 m/S 722 mmHg 64%
    15:00 +30°C° 0.2 mm 3 m/S 722 mmHg 64%
    16:00 +29°C° 0.2 mm 3 m/S 722 mmHg 65%
    17:00 +29°C° 0.2 mm 3 m/S 722 mmHg 68%
    18:00 +28°C° 0.2 mm 3 m/S 722 mmHg 70%
    19:00 +28°C° 0.2 mm 3 m/S 722 mmHg 73%
    20:00 +27°C° 0 mm 3 m/S 722 mmHg 75%
    21:00 +27°C° 0 mm 3 m/S 722 mmHg 77%
    22:00 +27°C° 0 mm 3 m/S 723 mmHg 79%
    23:00 +26°C° 0 mm 3 m/S 722 mmHg 80%

    Morgen, 12 Dezember, Donnerstag

    Zeit Temperatur Niederschläge Wind Luftdruck Luftfeuchtigkeit
    00:00 +26°C° 0 mm 3 m/S 722 mmHg 81%
    01:00 +26°C° 0 mm 3 m/S 721 mmHg 83%
    02:00 +26°C° 0 mm 3 m/S 721 mmHg 83%
    03:00 +26°C° 0 mm 3 m/S 721 mmHg 83%
    04:00 +26°C° 0 mm 3 m/S 721 mmHg 84%
    05:00 +26°C° 0 mm 3 m/S 722 mmHg 82%
    06:00 +26°C° 0 mm 3 m/S 722 mmHg 80%
    07:00 +26°C° 0 mm 4 m/S 722 mmHg 78%
    08:00 +27°C° 0 mm 4 m/S 722 mmHg 75%
    09:00 +28°C° 0 mm 4 m/S 723 mmHg 71%
    10:00 +29°C° 0 mm 4 m/S 723 mmHg 67%
    11:00 +29°C° 0.4 mm 4 m/S 722 mmHg 67%
    12:00 +29°C° 0.4 mm 4 m/S 722 mmHg 66%
    13:00 +30°C° 0.4 mm 4 m/S 722 mmHg 65%
    14:00 +29°C° 0.4 mm 4 m/S 721 mmHg 66%
    15:00 +29°C° 0.4 mm 4 m/S 721 mmHg 66%
    16:00 +29°C° 0.4 mm 5 m/S 720 mmHg 67%
    17:00 +28°C° 0 mm 4 m/S 721 mmHg 70%
    18:00 +28°C° 0 mm 4 m/S 721 mmHg 74%
    19:00 +27°C° 0 mm 4 m/S 721 mmHg 77%
    20:00 +27°C° 0 mm 4 m/S 721 mmHg 78%
    21:00 +27°C° 0 mm 4 m/S 721 mmHg 79%
    22:00 +26°C° 0 mm 4 m/S 722 mmHg 81%
    23:00 +26°C° 0 mm 4 m/S 721 mmHg 82%

    übermorgen, 13 Dezember, Freitag

    Zeit Temperatur Niederschläge Wind Luftdruck Luftfeuchtigkeit
    00:00 +26°C° 0 mm 4 m/S 721 mmHg 82%
    01:00 +26°C° 0 mm 4 m/S 721 mmHg 83%
    02:00 +26°C° 0.1 mm 3 m/S 721 mmHg 85%
    03:00 +26°C° 0.1 mm 3 m/S 721 mmHg 86%
    04:00 +25°C° 0.1 mm 2 m/S 721 mmHg 87%
    05:00 +26°C° 0.4 mm 3 m/S 721 mmHg 86%
    06:00 +26°C° 0.4 mm 3 m/S 722 mmHg 85%
    07:00 +26°C° 0.4 mm 3 m/S 722 mmHg 84%
    08:00 +27°C° 0.4 mm 4 m/S 722 mmHg 80%
    09:00 +27°C° 0.4 mm 4 m/S 723 mmHg 76%
    10:00 +28°C° 0.4 mm 4 m/S 723 mmHg 72%
    11:00 +29°C° 0.8 mm 4 m/S 723 mmHg 71%
    12:00 +29°C° 0.8 mm 4 m/S 722 mmHg 70%
    13:00 +29°C° 0.8 mm 4 m/S 722 mmHg 69%
    14:00 +29°C° 0.4 mm 4 m/S 722 mmHg 69%
    15:00 +29°C° 0.4 mm 4 m/S 722 mmHg 68%
    16:00 +29°C° 0.4 mm 3 m/S 722 mmHg 68%
    17:00 +28°C° 0.1 mm 3 m/S 722 mmHg 70%
    18:00 +28°C° 0.1 mm 3 m/S 722 mmHg 72%
    19:00 +27°C° 0.1 mm 3 m/S 722 mmHg 74%
    20:00 +27°C° 0 mm 3 m/S 723 mmHg 76%
    21:00 +27°C° 0 mm 2 m/S 723 mmHg 78%
    22:00 +26°C° 0 mm 2 m/S 724 mmHg 80%
    23:00 +26°C° 0 mm 2 m/S 723 mmHg 82%

    14 Dezember, Samstag

    Zeit Temperatur Niederschläge Wind Luftdruck Luftfeuchtigkeit
    00:00 +26°C° 0 mm 3 m/S 723 mmHg 84%
    01:00 +26°C° 0 mm 3 m/S 722 mmHg 85%
    02:00 +25°C° 0 mm 3 m/S 722 mmHg 85%
    03:00 +25°C° 0 mm 3 m/S 722 mmHg 86%
    04:00 +25°C° 0 mm 3 m/S 722 mmHg 86%
    05:00 +25°C° 0 mm 3 m/S 722 mmHg 84%
    06:00 +25°C° 0 mm 3 m/S 723 mmHg 83%
    07:00 +26°C° 0 mm 3 m/S 723 mmHg 81%
    08:00 +27°C° 0 mm 3 m/S 723 mmHg 73%
    09:00 +28°C° 0 mm 3 m/S 724 mmHg 64%
    10:00 +29°C° 0 mm 3 m/S 724 mmHg 55%
    11:00 +29°C° 0 mm 3 m/S 724 mmHg 56%
    12:00 +30°C° 0 mm 3 m/S 723 mmHg 57%
    13:00 +30°C° 0 mm 3 m/S 723 mmHg 57%
    14:00 +30°C° 0 mm 3 m/S 723 mmHg 60%
    15:00 +30°C° 0 mm 3 m/S 723 mmHg 63%
    16:00 +29°C° 0 mm 3 m/S 722 mmHg 65%
    17:00 +29°C° 0.3 mm 3 m/S 723 mmHg 69%
    18:00 +28°C° 0.3 mm 2 m/S 723 mmHg 72%
    19:00 +27°C° 0.3 mm 2 m/S 723 mmHg 75%
    20:00 +27°C° 0.4 mm 3 m/S 723 mmHg 77%
    21:00 +27°C° 0.4 mm 3 m/S 724 mmHg 78%
    22:00 +26°C° 0.4 mm 3 m/S 724 mmHg 80%
    23:00 +26°C° 0.2 mm 3 m/S 723 mmHg 81%

    15 Dezember, Sonntag

    Zeit Temperatur Niederschläge Wind Luftdruck Luftfeuchtigkeit
    00:00 +26°C° 0.2 mm 3 m/S 723 mmHg 82%
    01:00 +26°C° 0.2 mm 3 m/S 723 mmHg 84%
    02:00 +25°C° 0.2 mm 3 m/S 722 mmHg 83%
    03:00 +25°C° 0.2 mm 3 m/S 722 mmHg 83%
    04:00 +25°C° 0.2 mm 3 m/S 722 mmHg 83%
    05:00 +25°C° 0 mm 3 m/S 722 mmHg 81%
    06:00 +25°C° 0 mm 3 m/S 723 mmHg 80%
    07:00 +26°C° 0 mm 3 m/S 723 mmHg 79%
    08:00 +27°C° 0 mm 4 m/S 723 mmHg 75%
    09:00 +28°C° 0 mm 4 m/S 723 mmHg 71%
    10:00 +29°C° 0 mm 4 m/S 723 mmHg 67%
    11:00 +29°C° 0 mm 4 m/S 723 mmHg 65%
    12:00 +29°C° 0 mm 4 m/S 722 mmHg 63%
    13:00 +30°C° 0 mm 4 m/S 722 mmHg 61%
    14:00 +29°C° 0.1 mm 3 m/S 722 mmHg 61%
    15:00 +29°C° 0.1 mm 3 m/S 722 mmHg 62%
    16:00 +29°C° 0.1 mm 2 m/S 721 mmHg 62%
    17:00 +28°C° 0.1 mm 2 m/S 721 mmHg 65%
    18:00 +28°C° 0.1 mm 2 m/S 722 mmHg 67%
    19:00 +27°C° 0.1 mm 2 m/S 722 mmHg 70%
    20:00 +27°C° 0.1 mm 2 m/S 722 mmHg 73%
    21:00 +26°C° 0.1 mm 2 m/S 722 mmHg 76%
    22:00 +26°C° 0.1 mm 2 m/S 722 mmHg 78%
    23:00 +26°C° 0.1 mm 3 m/S 722 mmHg 79%

    16 Dezember, Montag

    Zeit Temperatur Niederschläge Wind Luftdruck Luftfeuchtigkeit
    00:00 +26°C° 0.1 mm 3 m/S 721 mmHg 80%
    01:00 +25°C° 0.1 mm 3 m/S 721 mmHg 81%
    02:00 +25°C° 0 mm 3 m/S 721 mmHg 82%
    03:00 +25°C° 0 mm 3 m/S 720 mmHg 82%
    04:00 +25°C° 0 mm 3 m/S 720 mmHg 83%
    05:00 +25°C° 0 mm 2 m/S 720 mmHg 81%
    06:00 +25°C° 0 mm 2 m/S 721 mmHg 79%
    07:00 +25°C° 0 mm 2 m/S 721 mmHg 77%
    08:00 +27°C° 0 mm 2 m/S 721 mmHg 71%
    09:00 +28°C° 0 mm 2 m/S 721 mmHg 64%
    10:00 +29°C° 0 mm 2 m/S 722 mmHg 58%
    11:00 +29°C° 0 mm 2 m/S 721 mmHg 59%
    12:00 +29°C° 0 mm 2 m/S 721 mmHg 61%
    13:00 +29°C° 0 mm 3 m/S 721 mmHg 62%
    14:00 +28°C° 0.1 mm 2 m/S 720 mmHg 65%
    15:00 +27°C° 0.1 mm 2 m/S 720 mmHg 69%
    16:00 +26°C° 0.1 mm 1 m/S 720 mmHg 72%
    17:00 +26°C° 0 mm 2 m/S 720 mmHg 72%
    18:00 +26°C° 0 mm 2 m/S 720 mmHg 72%
    19:00 +26°C° 0 mm 2 m/S 720 mmHg 72%
    20:00 +26°C° 0 mm 2 m/S 720 mmHg 73%
    21:00 +26°C° 0 mm 2 m/S 721 mmHg 75%
    22:00 +26°C° 0 mm 2 m/S 721 mmHg 76%
    23:00 +26°C° 0 mm 1 m/S 720 mmHg 77%
    Mehr zeigen